Weather History for Somerville, NJ

Change the Weather History Date:

Tuesday, January 7, 2014

  Actual Average Record
Temperature  
Mean Temperature 5 °F -  
Max Temperature 9 °F 36 °F 64 °F (2008)
Min Temperature 1 °F 19 °F 1 °F (2014)
Degree Days  
Heating Degree Days 60    
Moisture  
Dew Point -13 °F    
Average Humidity 42    
Maximum Humidity 46    
Minimum Humidity 38    
Precipitation  
Precipitation 0.00 in - - ()
Sea Level Pressure  
Sea Level Pressure 30.16 in    
Wind  
Wind Speed 13 mph (WNW)    
Max Wind Speed 16 mph    
Max Gust Speed 31 mph    
Visibility 10 miles    
Events      
Averages and records for this station are not official NWS values.
T = Trace of Precipitation, MM = Missing Value Source: NWS Daily Summary

Daily Weather History Graph

Daily Weather History Graph

Search for Another Location

Airport:

Trip Planner

Search our weather history database for the weather conditions in past years. The results will help you decide how hot, cold, wet, or windy it might be!

Date:

Astronomy

Jan. 07, 2014 Rise Set
Actual Time 7:22 AM EST 4:47 PM EST
Civil Twilight 6:51 AM EST 5:18 PM EST
Nautical Twilight 6:17 AM EST 5:52 PM EST
Astronomical Twilight 5:44 AM EST 6:25 PM EST
Moon 11:07 AM EST (1/7) No Moon Set
Length of Visible Light 10h 26m
Length of Day
9h 25m
Waxing Crescent, 45% of the Moon is Illuminated
Jan 7
Waxing Crescent
Jan 7
First Quarter
Jan 15
Full
Jan 24
Last Quarter
Jan 30
New

Hourly Weather History & Observations

Time (EST) Temp. Windchill Dew Point Humidity Pressure Visibility Wind Dir Wind Speed Gust Speed Precip Events Conditions
12:53 AM 9.0 °F -8.5 °F -9.9 °F 42% 29.88 in 10.0 mi West 16.1 mph 26.5 mph N/A   Clear
1:53 AM 8.1 °F -9.6 °F -11.9 °F 40% 29.92 in 10.0 mi WNW 16.1 mph 28.8 mph N/A   Clear
2:53 AM 6.1 °F -10.2 °F -11.9 °F 44% 29.97 in 10.0 mi West 12.7 mph 29.9 mph N/A   Clear
3:53 AM 5.0 °F -11.6 °F -13.0 °F 43% 30.00 in 10.0 mi West 12.7 mph 25.3 mph N/A   Clear
4:53 AM 3.9 °F -11.3 °F -14.1 °F 43% 30.03 in 10.0 mi West 10.4 mph 28.8 mph N/A   Clear
5:53 AM 3.0 °F -10.5 °F -14.1 °F 45% 30.08 in 10.0 mi WNW 8.1 mph 21.9 mph N/A   Clear
6:53 AM 1.9 °F -16.2 °F -16.1 °F 43% 30.12 in 10.0 mi West 13.8 mph 31.1 mph N/A   Clear
7:53 AM 1.9 °F -12.9 °F -16.1 °F 43% 30.17 in 10.0 mi West 9.2 mph 25.3 mph N/A   Clear
8:53 AM 1.9 °F -16.2 °F -16.1 °F 43% 30.20 in 10.0 mi WNW 13.8 mph 25.3 mph N/A   Clear
9:53 AM 3.9 °F -14.3 °F -16.1 °F 39% 30.25 in 10.0 mi WNW 15.0 mph 29.9 mph N/A   Clear
10:53 AM 5.0 °F -13.0 °F -15.0 °F 39% 30.25 in 10.0 mi WNW 15.0 mph 27.6 mph N/A   Clear
11:53 AM 6.1 °F -6.8 °F -14.1 °F 39% 30.22 in 10.0 mi West 8.1 mph 23.0 mph N/A   Clear
12:53 PM 7.0 °F -6.6 °F -14.1 °F 38% 30.21 in 10.0 mi WNW 9.2 mph 26.5 mph N/A   Clear
1:53 PM 7.0 °F -7.5 °F -13.0 °F 40% 30.23 in 10.0 mi WNW 10.4 mph 23.0 mph N/A   Partly Cloudy
2:53 PM 8.1 °F -8.4 °F -11.9 °F 40% 30.26 in 10.0 mi West 13.8 mph 21.9 mph N/A   Clear
3:53 PM 8.1 °F -5.3 °F -11.0 °F 42% 30.27 in 10.0 mi West 9.2 mph - N/A   Clear
4:53 PM 8.1 °F -6.2 °F -11.0 °F 42% 30.28 in 10.0 mi WNW 10.4 mph 17.3 mph N/A   Clear
5:53 PM 8.1 °F -3.2 °F -9.9 °F 44% 30.30 in 10.0 mi Variable 6.9 mph 16.1 mph N/A   Clear
6:53 PM 8.1 °F -6.2 °F -9.9 °F 44% 30.30 in 10.0 mi WNW 10.4 mph 16.1 mph N/A   Clear
7:53 PM 8.1 °F -0.5 °F -9.0 °F 46% 30.33 in 10.0 mi Variable 4.6 mph - N/A   Clear